EDT,Max TemperatureF,Mean TemperatureF,Min TemperatureF,Max Dew PointF,MeanDew PointF,Min DewpointF,Max Humidity, Mean Humidity, Min Humidity, Max Sea Level PressureIn, Mean Sea Level PressureIn, Min Sea Level PressureIn, Max VisibilityMiles, Mean VisibilityMiles, Min VisibilityMiles, Max Wind SpeedMPH, Mean Wind SpeedMPH, Max Gust SpeedMPH,PrecipitationIn, CloudCover, Events, WindDirDegrees
2013-4-1,44,36,26,32,18,11,76,50,28,30.13,29.97,29.75,10,10,10,18,14,26,0.00,4,,301
2013-4-2,43,32,21,20,13,10,75,49,29,30.26,30.19,30.13,10,10,10,17,8,26,0.00,2,,285
2013-4-3,46,33,21,19,12,6,74,45,22,30.41,30.36,30.27,10,10,10,16,6,24,0.00,0,,322
2013-4-4,55,40,26,17,14,6,63,40,16,30.35,30.16,29.96,10,10,10,10,7,,0.00,0,,174
2013-4-5,55,44,34,32,22,10,67,47,19,30.19,30.06,29.94,10,10,7,18,7,23,0.00,2,,11
2013-4-6,57,45,33,24,20,15,66,39,24,30.23,30.08,29.83,10,10,10,21,12,28,0.00,2,,143
2013-4-7,68,60,51,44,38,26,54,44,33,29.99,29.84,29.72,10,10,10,25,18,36,0.00,1,,246
2013-4-8,73,56,41,55,47,34,82,66,49,30.00,29.89,29.78,10,10,7,32,13,43,0.05,4,Thunderstorm,194
2013-4-9,82,65,50,55,50,44,80,61,38,30.05,29.94,29.84,10,10,10,25,7,38,0.00,5,,197
2013-4-10,69,54,44,57,48,42,94,89,62,29.96,29.87,29.80,10,5,0,20,8,26,1.85,7,Fog-Rain-Thunderstorm,44
2013-4-11,43,42,41,41,40,39,96,93,87,29.91,29.77,29.57,10,6,2,18,13,30,1.01,8,Rain-Thunderstorm,57
2013-4-12,42,40,39,41,37,30,100,85,65,29.85,29.65,29.49,10,7,1,22,9,32,0.52,8,Rain,260
2013-4-13,43,40,37,36,33,29,87,79,62,30.02,29.92,29.86,10,10,6,23,15,31,0.00,8,Rain,245
2013-4-14,60,47,35,44,37,30,82,70,53,30.09,30.00,29.89,10,10,10,14,7,21,0.00,3,,130
2013-4-15,70,58,46,52,47,39,81,65,53,29.96,29.92,29.87,10,10,10,20,11,25,0.00,2,,173
2013-4-16,61,54,48,55,51,46,100,89,77,30.19,30.08,29.88,10,7,1,16,8,28,0.27,7,Rain-Thunderstorm,291
2013-4-17,59,52,46,49,45,39,100,79,62,30.26,30.16,29.99,10,8,0,20,7,24,0.00,6,Fog-Rain,54
2013-4-18,82,64,46,63,55,37,90,74,48,30.02,29.76,29.58,10,10,7,39,15,48,0.01,4,Rain,185
2013-4-19,69,52,35,57,38,29,93,79,58,29.87,29.62,29.39,10,9,2,31,21,41,0.37,8,Rain,243
2013-4-20,45,38,32,31,26,20,87,65,42,30.44,30.13,29.88,10,9,1,22,16,29,0.01,5,Snow,277
2013-4-21,50,39,28,31,25,19,73,57,41,30.59,30.50,30.44,10,10,10,14,7,17,0.00,0,,67
2013-4-22,64,48,33,38,32,27,82,56,30,30.42,30.28,30.15,10,10,10,10,6,16,0.00,0,,111
2013-4-23,72,59,46,55,43,32,93,59,34,30.14,30.00,29.81,10,10,4,24,11,29,0.08,3,Rain,166
2013-4-24,59,46,34,54,39,28,94,87,70,30.19,29.90,29.72,10,8,2,22,14,31,0.73,7,Rain-Snow,296
2013-4-25,52,41,32,38,32,28,86,69,48,30.37,30.23,30.18,10,10,9,23,9,30,0.01,3,Rain,232
2013-4-26,60,46,32,37,32,29,89,60,35,30.46,30.40,30.35,10,10,6,10,4,16,0.00,0,,169
2013-4-27,69,52,37,43,36,33,86,52,28,30.35,30.24,30.07,10,10,10,13,6,,0.00,1,,132
2013-4-28,61,56,53,58,54,44,100,91,67,30.07,29.88,29.81,10,6,0,12,6,,0.47,8,Fog-Rain,146
2013-4-29,68,60,54,56,55,51,100,87,63,29.96,29.91,29.83,10,7,2,10,6,,0.00,6,,233
2013-4-30,73,62,51,56,53,49,96,73,50,30.06,30.01,29.96,10,9,3,17,9,23,0.01,0,,155